FW6030 Weather Reports


time (UTC)temp
C
wind
direction
speed
KPH
gust
KPH
rain 1hr
cm
rain 24hr
cm
rain mn
cm
humidity
%
barometer
mb
20260505060226 21 360 11.3 38.6 0.00 0.00 0.00 84 1010.4
20260505060147 21 360 11.3 38.6 0.00 0.00 0.00 84 1010.4
20260505060027 21 360 12.9 38.6 0.00 0.00 0.00 84 1010.4
20260505055927 21 360 14.5 38.6 0.00 0.00 0.00 84 1010.5
20260505055829 21 360 14.5 38.6 0.00 0.00 0.00 84 1010.4
20260505055729 21 360 14.5 38.6 0.00 0.00 0.00 84 1010.5
20260505055626 21 360 12.9 45.1 0.00 0.00 0.00 84 1010.4
20260505055532 21 360 12.9 45.1 0.00 0.00 0.00 84 1010.4
20260505055432 21 360 12.9 45.1 0.00 0.00 0.00 84 1010.4
20260505055332 21 360 14.5 45.1 0.00 0.00 0.00 84 1010.3
20260505055232 21 360 14.5 45.1 0.00 0.00 0.00 84 1010.3
20260505055133 21 360 16.1 45.1 0.00 0.00 0.00 84 1010.3
20260505055034 21 360 17.7 45.1 0.00 0.00 0.00 84 1010.3
20260505054933 21 360 16.1 45.1 0.00 0.00 0.00 84 1010.4
20260505054818 21 360 14.5 40.2 0.00 0.00 0.00 84 1010.3
20260505054718 21 360 14.5 40.2 0.00 0.00 0.00 84 1010.3
20260505054619 21 360 14.5 40.2 0.00 0.00 0.00 84 1010.3
20260505054519 21 360 14.5 40.2 0.00 0.00 0.00 84 1010.3
20260505054419 21 360 14.5 40.2 0.00 0.00 0.00 84 1010.4
20260505054320 21 360 14.5 51.5 0.00 0.00 0.00 84 1010.3
20260505054221 21 360 16.1 51.5 0.00 0.00 0.00 84 1010.3
20260505054126 21 360 16.1 51.5 0.00 0.00 0.00 84 1010.3
20260505054026 21 360 17.7 51.5 0.00 0.00 0.00 84 1010.4
20260505053947 21 360 14.5 51.5 0.00 0.00 0.00 84 1010.4
20260505053825 21 360 14.5 51.5 0.00 0.00 0.00 84 1010.4
20260505053747 21 360 14.5 51.5 0.00 0.00 0.00 84 1010.5
20260505053627 21 360 14.5 51.5 0.00 0.00 0.00 84 1010.5
20260505053526 21 360 16.1 51.5 0.00 0.00 0.00 84 1010.5
20260505053431 21 360 17.7 51.5 0.00 0.00 0.00 84 1010.4
20260505053352 21 360 17.7 51.5 0.00 0.00 0.00 84 1010.4
20260505053232 21 360 17.7 51.5 0.00 0.00 0.00 84 1010.4
20260505053133 21 360 16.1 40.2 0.00 0.00 0.00 84 1010.3
20260505053033 21 360 17.7 40.2 0.00 0.00 0.00 84 1010.3
20260505052934 21 360 16.1 33.8 0.00 0.00 0.00 84 1010.2
20260505052836 21 360 16.1 33.8 0.00 0.00 0.00 84 1010.3
20260505052720 21 360 16.1 33.8 0.00 0.00 0.00 84 1010.3
20260505052619 21 360 16.1 33.8 0.00 0.00 0.00 84 1010.3
20260505052520 21 360 16.1 33.8 0.00 0.00 0.00 84 1010.3
20260505052441 21 360 14.5 33.8 0.00 0.00 0.00 84 1010.3
20260505052321 21 360 14.5 33.8 0.00 0.00 0.00 84 1010.3
20260505052221 21 360 11.3 33.8 0.00 0.00 0.00 84 1010.3
20260505052121 21 360 12.9 33.8 0.00 0.00 0.00 84 1010.3
20260505052026 21 360 11.3 33.8 0.00 0.00 0.00 84 1010.3
20260505051926 21 360 12.9 33.8 0.00 0.00 0.00 84 1010.3
20260505051827 21 360 12.9 33.8 0.00 0.00 0.00 84 1010.3
20260505051726 21 360 12.9 33.8 0.00 0.00 0.00 84 1010.4
20260505051628 21 360 12.9 33.8 0.00 0.00 0.00 84 1010.3
20260505051528 21 360 12.9 27.4 0.00 0.00 0.00 84 1010.4
20260505051449 21 360 12.9 27.4 0.00 0.00 0.00 84 1010.4
20260505051332 21 360 11.3 30.6 0.00 0.00 0.00 84 1010.4
20260505051232 21 360 12.9 30.6 0.00 0.00 0.00 84 1010.3
20260505051134 21 360 12.9 30.6 0.00 0.00 0.00 84 1010.4
20260505051034 21 360 12.9 30.6 0.00 0.00 0.00 84 1010.3
20260505050934 21 360 14.5 30.6 0.00 0.00 0.00 84 1010.3
20260505050835 21 360 14.5 30.6 0.00 0.00 0.00 84 1010.4
20260505050719 21 360 14.5 25.7 0.00 0.00 0.00 84 1010.3
20260505050620 21 360 14.5 25.7 0.00 0.00 0.00 84 1010.2
20260505050539 21 360 12.9 25.7 0.00 0.00 0.00 84 1010.2
20260505050419 21 360 11.3 25.7 0.00 0.00 0.00 84 1010.2
20260505050319 21 360 9.7 25.7 0.00 0.00 0.00 84 1010.2
20260505050240 21 360 9.7 25.7 0.00 0.00 0.00 84 1010.3
20260505050120 21 360 9.7 25.7 0.00 0.00 0.00 83 1010.4
20260505041727 22 360 14.5 30.6 0.00 0.00 0.00 82 1010.2
20260505041651 22 360 16.1 30.6 0.00 0.00 0.00 82 1010.2
20260505041532 22 360 16.1 30.6 0.00 0.00 0.00 82 1010.2
20260505041432 22 360 17.7 30.6 0.00 0.00 0.00 81 1010.3
20260505041333 22 360 16.1 30.6 0.00 0.00 0.00 81 1010.2
20260505041253 22 360 14.5 30.6 0.00 0.00 0.00 81 1010.2
20260505041132 22 360 16.1 30.6 0.00 0.00 0.00 81 1010.2
20260505041032 22 360 16.1 30.6 0.00 0.00 0.00 81 1010.2
20260505040917 22 360 16.1 35.4 0.00 0.00 0.00 81 1010.2
20260505040818 22 360 16.1 35.4 0.00 0.00 0.00 81 1010.2
20260505040718 22 360 16.1 35.4 0.00 0.00 0.00 81 1010.2
20260505040618 22 360 17.7 35.4 0.00 0.00 0.00 81 1010.2
20260505040519 22 360 17.7 30.6 0.00 0.00 0.00 81 1010.3
20260505040439 22 360 17.7 30.6 0.00 0.00 0.00 81 1010.2
20260505040319 22 360 17.7 30.6 0.00 0.00 0.00 81 1010.3
20260505040238 22 360 17.7 30.6 0.00 0.00 0.00 81 1010.3
20260505040122 22 360 17.7 30.6 0.00 0.00 0.00 81 1010.3
20260505040023 22 360 17.7 30.6 0.00 0.00 0.00 81 1010.3
20260505035924 22 360 16.1 38.6 0.00 0.00 0.00 81 1010.2
20260505035825 22 360 17.7 38.6 0.00 0.00 0.00 81 1010.2
20260505035724 22 360 19.3 38.6 0.00 0.00 0.00 81 1010.3
20260505035625 22 360 19.3 38.6 0.00 0.00 0.00 80 1010.2
20260505035529 22 360 20.9 38.6 0.00 0.00 0.00 80 1010.2
20260505035430 22 360 20.9 38.6 0.00 0.00 0.00 80 1010.3
20260505035330 22 360 20.9 38.6 0.00 0.00 0.00 80 1010.3
20260505035250 22 360 20.9 38.6 0.00 0.00 0.00 80 1010.4
20260505035130 22 360 20.9 38.6 0.00 0.00 0.00 80 1010.3
20260505035051 22 360 20.9 38.6 0.00 0.00 0.00 80 1010.3
20260505034930 22 360 19.3 32.2 0.00 0.00 0.00 80 1010.3
20260505034831 22 360 17.7 32.2 0.00 0.00 0.00 80 1010.3
20260505034716 22 360 16.1 29.0 0.00 0.00 0.00 80 1010.2
20260505034636 22 360 16.1 29.0 0.00 0.00 0.00 80 1010.2
20260505034534 22 360 16.1 32.2 0.00 0.00 0.00 80 1010.2
20260505034455 22 360 16.1 32.2 0.00 0.00 0.00 80 1010.3
20260505034336 22 360 17.7 32.2 0.00 0.00 0.00 80 1010.3
20260505034235 22 360 19.3 32.2 0.00 0.00 0.00 80 1010.3
20260505034120 22 360 19.3 35.4 0.00 0.00 0.00 80 1010.2
20260505034020 22 360 19.3 35.4 0.00 0.00 0.00 80 1010.3
20260505033940 22 360 19.3 35.4 0.00 0.00 0.00 80 1010.2
20260505033820 22 360 20.9 35.4 0.00 0.00 0.00 80 1010.2
20260505033721 22 360 19.3 35.4 0.00 0.00 0.00 80 1010.2
20260505033622 22 360 17.7 35.4 0.00 0.00 0.00 80 1010.3
20260505033522 22 360 16.1 35.4 0.00 0.00 0.00 80 1010.3
20260505033427 22 360 16.1 35.4 0.00 0.00 0.00 80 1010.3
20260505033328 22 360 16.1 35.4 0.00 0.00 0.00 80 1010.3
20260505033228 22 360 14.5 35.4 0.00 0.00 0.00 80 1010.2
20260505033130 22 360 14.5 35.4 0.00 0.00 0.00 80 1010.3
20260505033030 22 360 14.5 35.4 0.00 0.00 0.00 80 1010.3
20260505032930 22 360 14.5 35.4 0.00 0.00 0.00 80 1010.3
20260505032831 22 360 12.9 29.0 0.00 0.00 0.00 79 1010.4
20260505032736 22 360 12.9 29.0 0.00 0.00 0.00 79 1010.4
20260505032635 22 360 14.5 29.0 0.00 0.00 0.00 79 1010.3
20260505032517 22 360 14.5 29.0 0.00 0.00 0.00 79 1010.4
20260505032417 22 360 14.5 32.2 0.00 0.00 0.00 79 1010.3
20260505032318 22 360 14.5 32.2 0.00 0.00 0.00 79 1010.4
20260505032218 22 360 16.1 32.2 0.00 0.00 0.00 79 1010.3
20260505032122 22 360 16.1 32.2 0.00 0.00 0.00 79 1010.3
20260505032022 22 360 17.7 32.2 0.00 0.00 0.00 79 1010.3
20260505031923 22 360 16.1 32.2 0.00 0.00 0.00 79 1010.2
20260505031824 22 360 14.5 32.2 0.00 0.00 0.00 79 1010.2
20260505031726 23 360 14.5 32.2 0.00 0.00 0.00 79 1010.2
20260505031626 23 360 14.5 32.2 0.00 0.00 0.00 79 1010.2
20260505031546 23 360 14.5 32.2 0.00 0.00 0.00 79 1010.2
20260505031430 23 360 14.5 32.2 0.00 0.00 0.00 79 1010.2
20260505031351 23 360 14.5 32.2 0.00 0.00 0.00 79 1010.2
20260505031230 23 360 12.9 32.2 0.00 0.00 0.00 79 1010.3
20260505031130 23 360 14.5 29.0 0.00 0.00 0.00 79 1010.2
20260505031029 23 360 16.1 29.0 0.00 0.00 0.00 79 1010.3
20260505030930 23 360 14.5 29.0 0.00 0.00 0.00 79 1010.3
20260505030830 23 360 14.5 29.0 0.00 0.00 0.00 79 1010.3
20260505030751 23 360 16.1 29.0 0.00 0.00 0.00 79 1010.3
20260505030654 23 360 14.5 29.0 0.00 0.00 0.00 79 1010.3
20260505030553 23 360 14.5 25.7 0.00 0.00 0.00 79 1010.3
20260505030433 23 360 14.5 25.7 0.00 0.00 0.00 79 1010.2
20260505030333 23 360 14.5 25.7 0.00 0.00 0.00 79 1010.3
20260505030234 23 360 12.9 24.1 0.00 0.00 0.00 79 1010.3
20260505030154 23 360 12.9 24.1 0.00 0.00 0.00 79 1010.3
20260505030033 23 360 11.3 22.5 0.00 0.00 0.00 79 1010.3
20260505025918 23 360 11.3 22.5 0.00 0.00 0.00 79 1010.2
20260505025819 23 360 11.3 22.5 0.00 0.00 0.00 78 1010.3
20260505025719 23 360 11.3 22.5 0.00 0.00 0.00 78 1010.2
20260505025639 23 360 11.3 24.1 0.00 0.00 0.00 78 1010.3
20260505025519 23 360 12.9 24.1 0.00 0.00 0.00 78 1010.4
20260505025441 23 360 12.9 24.1 0.00 0.00 0.00 78 1010.4
20260505025319 23 360 12.9 24.1 0.00 0.00 0.00 78 1010.4
20260505025220 23 360 11.3 24.1 0.00 0.00 0.00 78 1010.4
20260505025124 23 360 12.9 24.1 0.00 0.00 0.00 78 1010.3
20260505025025 23 360 12.9 24.1 0.00 0.00 0.00 78 1010.3
20260505024925 23 360 12.9 24.1 0.00 0.00 0.00 78 1010.3
20260505024826 23 360 11.3 25.7 0.00 0.00 0.00 78 1010.3
20260505024725 23 360 11.3 25.7 0.00 0.00 0.00 78 1010.2
20260505024646 23 360 9.7 25.7 0.00 0.00 0.00 78 1010.3
20260505024526 23 360 9.7 25.7 0.00 0.00 0.00 78 1010.3
20260505024430 23 360 9.7 25.7 0.00 0.00 0.00 77 1010.3
20260505024331 23 360 9.7 25.7 0.00 0.00 0.00 77 1010.2
20260505024231 23 360 9.7 25.7 0.00 0.00 0.00 77 1010.3
20260505024131 23 360 9.7 25.7 0.00 0.00 0.00 77 1010.3
20260505024052 23 360 9.7 25.7 0.00 0.00 0.00 77 1010.3
20260505023932 23 360 9.7 25.7 0.00 0.00 0.00 77 1010.3
20260505023816 23 360 9.7 20.9 0.00 0.00 0.00 77 1010.3
20260505023717 23 360 11.3 20.9 0.00 0.00 0.00 77 1010.3
20260505023617 23 360 11.3 20.9 0.00 0.00 0.00 77 1010.3
20260505023518 23 360 11.3 20.9 0.00 0.00 0.00 77 1010.3
20260505023419 23 360 11.3 20.9 0.00 0.00 0.00 77 1010.3
20260505023339 23 360 11.3 20.9 0.00 0.00 0.00 77 1010.3
20260505023238 23 360 11.3 20.9 0.00 0.00 0.00 77 1010.3
20260505023119 23 360 12.9 20.9 0.00 0.00 0.00 77 1010.3
20260505023024 23 360 12.9 20.9 0.00 0.00 0.00 77 1010.3
20260505022924 23 360 11.3 20.9 0.00 0.00 0.00 77 1010.3
20260505022825 23 360 9.7 20.9 0.00 0.00 0.00 77 1010.2
20260505022724 23 360 11.3 20.9 0.00 0.00 0.00 77 1010.2
20260505022625 23 360 11.3 20.9 0.00 0.00 0.00 77 1010.1
20260505022525 23 360 9.7 20.9 0.00 0.00 0.00 77 1010.3
20260505022430 23 360 9.7 20.9 0.00 0.00 0.00 76 1010.3
20260505022331 23 360 9.7 20.9 0.00 0.00 0.00 76 1010.2
20260505022232 23 360 11.3 20.9 0.00 0.00 0.00 76 1010.2
20260505022132 23 360 11.3 20.9 0.00 0.00 0.00 76 1010.2
20260505022032 23 360 11.3 20.9 0.00 0.00 0.00 76 1010.2
20260505021933 23 360 11.3 20.9 0.00 0.00 0.00 76 1010.2
20260505021819 23 360 12.9 20.9 0.00 0.00 0.00 76 1010.2
20260505021720 23 360 12.9 20.9 0.00 0.00 0.00 76 1010.1
20260505021621 23 360 11.3 20.9 0.00 0.00 0.00 76 1010.2
20260505021543 23 360 11.3 20.9 0.00 0.00 0.00 76 1010.2
20260505021416 23 360 11.3 20.9 0.00 0.00 0.00 76 1010.1
20260505021316 23 360 11.3 20.9 0.00 0.00 0.00 75 1010.2
20260505021216 23 360 11.3 20.9 0.00 0.00 0.00 75 1010.2
20260505021121 23 360 11.3 20.9 0.00 0.00 0.00 75 1010.2
20260505021021 23 360 11.3 20.9 0.00 0.00 0.00 75 1010.2
20260505020921 23 360 9.7 20.9 0.00 0.00 0.00 75 1010.2
20260505020823 23 360 9.7 20.9 0.00 0.00 0.00 75 1010.2
20260505020724 23 360 11.3 20.9 0.00 0.00 0.00 75 1010.1
20260505020645 23 360 11.3 20.9 0.00 0.00 0.00 74 1010.2
20260505020524 23 360 11.3 20.9 0.00 0.00 0.00 74 1010.1
20260505020429 23 360 11.3 20.9 0.00 0.00 0.00 74 1010.1
20260505020349 23 360 11.3 20.9 0.00 0.00 0.00 74 1010.1
20260505020229 23 360 11.3 20.9 0.00 0.00 0.00 74 1010.1
20260505020129 23 360 11.3 20.9 0.00 0.00 0.00 73 1010.2
20260505020031 23 360 11.3 20.9 0.00 0.00 0.00 73 1010.1
20260505015951 24 360 11.3 20.9 0.00 0.00 0.00 73 1010.1
20260505015830 24 360 9.7 20.9 0.00 0.00 0.00 73 1010.1
20260505015731 24 360 9.7 20.9 0.00 0.00 0.00 73 1010.1
20260505015630 24 360 8.0 19.3 0.00 0.00 0.00 73 1010.0
20260505015555 24 360 8.0 19.3 0.00 0.00 0.00 72 1010.0
20260505015453 24 360 8.0 24.1 0.00 0.00 0.00 72 1010.0
20260505015333 24 360 8.0 24.1 0.00 0.00 0.00 72 1010.0
20260505015234 24 360 6.4 24.1 0.00 0.00 0.00 72 1010.0
20260505015154 24 360 6.4 24.1 0.00 0.00 0.00 72 1010.1
20260505015034 24 360 8.0 24.1 0.00 0.00 0.00 72 1010.0
20260505014933 24 360 8.0 24.1 0.00 0.00 0.00 72 1010.1
20260505014818 24 360 9.7 24.1 0.00 0.00 0.00 72 1010.1
20260505014718 24 360 9.7 24.1 0.00 0.00 0.00 72 1010.0
20260505014639 24 360 9.7 24.1 0.00 0.00 0.00 72 1010.1
20260505014437 24 360 11.3 24.1 0.00 0.00 0.00 72 1010.0
20260505014317 24 360 11.3 24.1 0.00 0.00 0.00 72 1009.9
20260505014237 24 360 11.3 24.1 0.00 0.00 0.00 72 1009.9
20260505014116 24 360 11.3 24.1 0.00 0.00 0.00 72 1009.9
20260505014016 24 360 11.3 24.1 0.00 0.00 0.00 71 1009.9
20260505013920 24 360 11.3 24.1 0.00 0.00 0.00 71 1010.0
20260505013821 24 360 9.7 22.5 0.00 0.00 0.00 71 1010.0
20260505013721 24 360 9.7 22.5 0.00 0.00 0.00 71 1009.9
20260505013622 24 360 8.0 20.9 0.00 0.00 0.00 71 1010.0
20260505013519 24 360 8.0 20.9 0.00 0.00 0.00 71 1010.0
20260505013439 24 360 9.7 20.9 0.00 0.00 0.00 71 1010.0
20260505013319 24 360 8.0 20.9 0.00 0.00 0.00 71 1010.0
20260505013224 24 360 9.7 20.9 0.00 0.00 0.00 71 1010.0
20260505013145 24 360 9.7 20.9 0.00 0.00 0.00 71 1009.9
20260505013020 24 360 9.7 20.9 0.00 0.00 0.00 71 1009.8
20260505012920 24 360 9.7 20.9 0.00 0.00 0.00 71 1009.8
20260505012822 24 360 11.3 20.9 0.00 0.00 0.00 71 1009.8
20260505012742 25 360 9.7 20.9 0.00 0.00 0.00 71 1009.9
20260505012621 25 360 9.7 20.9 0.00 0.00 0.00 70 1009.9
20260505012522 25 360 9.7 20.9 0.00 0.00 0.00 70 1009.9
20260505012426 25 360 9.7 20.9 0.00 0.00 0.00 70 1009.9
20260505012326 25 360 9.7 20.9 0.00 0.00 0.00 70 1009.9
20260505012246 25 360 8.0 20.9 0.00 0.00 0.00 70 1009.9
20260505012146 25 360 8.0 20.9 0.00 0.00 0.00 70 1009.9
20260505012023 25 360 6.4 19.3 0.00 0.00 0.00 70 1009.9
20260505011924 25 360 6.4 19.3 0.00 0.00 0.00 70 1009.9
20260505011845 25 360 6.4 19.3 0.00 0.00 0.00 70 1009.9
20260505011725 25 360 6.4 19.3 0.00 0.00 0.00 70 1010.0
20260505011645 25 360 6.4 19.3 0.00 0.00 0.00 70 1010.0
20260505011549 25 360 6.4 19.3 0.00 0.00 0.00 70 1010.0
20260505011428 25 360 8.0 30.6 0.00 0.00 0.00 69 1010.0
20260505011329 25 360 8.0 30.6 0.00 0.00 0.00 69 1009.9
20260505011249 25 360 8.0 30.6 0.00 0.00 0.00 69 1009.9
20260505011129 25 360 8.0 30.6 0.00 0.00 0.00 69 1009.9
20260505011030 25 360 9.7 30.6 0.00 0.00 0.00 69 1009.9
20260505010929 25 360 11.3 30.6 0.00 0.00 0.00 69 1009.9
20260505010834 25 360 12.9 30.6 0.00 0.00 0.00 69 1009.8
20260505010734 25 360 14.5 30.6 0.00 0.00 0.00 69 1009.8
20260505010635 25 360 14.5 30.6 0.00 0.00 0.00 69 1009.7
20260505010555 25 360 14.5 30.6 0.00 0.00 0.00 69 1009.7
20260505010434 25 360 14.5 32.2 0.00 0.00 0.00 69 1009.7
20260505010335 25 360 12.9 32.2 0.00 0.00 0.00 69 1009.8
20260505010216 25 360 11.3 32.2 0.00 0.00 0.00 69 1009.8
20260505010121 25 360 11.3 32.2 0.00 0.00 0.00 69 1009.8
20260505010020 25 360 12.9 32.2 0.00 0.00 0.00 68 1009.8
20260505005941 25 360 12.9 32.2 0.00 0.00 0.00 68 1009.8
20260505005822 25 360 12.9 32.2 0.00 0.00 0.00 68 1009.9
20260505005721 25 360 12.9 25.7 0.00 0.00 0.00 68 1009.8
20260505005639 25 360 12.9 25.7 0.00 0.00 0.00 68 1009.8
20260505005517 25 360 11.3 25.7 0.00 0.00 0.00 68 1009.8
20260505005418 25 360 11.3 25.7 0.00 0.00 0.00 68 1009.8
20260505005322 25 360 11.3 25.7 0.00 0.00 0.00 68 1009.8
20260505005223 25 360 11.3 25.7 0.00 0.00 0.00 68 1009.8
20260505005124 25 360 11.3 27.4 0.00 0.00 0.00 67 1009.8
20260505005024 25 360 11.3 27.4 0.00 0.00 0.00 67 1009.8
20260505004924 25 360 12.9 27.4 0.00 0.00 0.00 67 1009.8
20260505004825 25 360 14.5 27.4 0.00 0.00 0.00 67 1009.9
20260505004725 25 360 14.5 27.4 0.00 0.00 0.00 67 1009.8
20260505004628 25 360 16.1 32.2 0.00 0.00 0.00 67 1009.8
20260505004549 25 360 16.1 38.6 0.00 0.00 0.00 67 1009.8
20260505004427 25 360 14.5 38.6 0.00 0.00 0.00 67 1009.7
20260505004348 25 360 14.5 38.6 0.00 0.00 0.00 67 1009.7
20260505004249 25 360 16.1 38.6 0.00 0.00 0.00 66 1009.7
20260505004128 25 360 14.5 38.6 0.00 0.00 0.00 66 1009.8
20260505004028 25 360 16.1 38.6 0.00 0.00 0.00 66 1009.7
20260505003949 25 360 14.5 35.4 0.00 0.00 0.00 66 1009.7
20260505003827 25 360 12.9 35.4 0.00 0.00 0.00 66 1009.7
20260505003732 25 360 12.9 35.4 0.00 0.00 0.00 66 1009.7
20260505003632 25 360 12.9 35.4 0.00 0.00 0.00 66 1009.7
20260505003532 25 360 11.3 24.1 0.00 0.00 0.00 66 1009.7
20260505003432 25 360 9.7 24.1 0.00 0.00 0.00 66 1009.7
20260505003332 25 360 8.0 24.1 0.00 0.00 0.00 66 1009.7
20260505003233 26 360 6.4 24.1 0.00 0.00 0.00 66 1009.6
20260505003154 26 360 8.0 24.1 0.00 0.00 0.00 66 1009.6
20260505003018 26 360 8.0 24.1 0.00 0.00 0.00 65 1009.6
20260505002919 26 360 8.0 24.1 0.00 0.00 0.00 65 1009.6
20260505002820 26 360 6.4 29.0 0.00 0.00 0.00 65 1009.6
20260505002720 26 360 8.0 32.2 0.00 0.00 0.00 65 1009.6
20260505002620 26 360 9.7 32.2 0.00 0.00 0.00 65 1009.6
20260505002521 26 360 11.3 32.2 0.00 0.00 0.00 65 1009.6
20260505002425 26 360 14.5 32.2 0.00 0.00 0.00 65 1009.7
20260505002345 26 360 14.5 32.2 0.00 0.00 0.00 65 1009.6
20260505002225 26 360 14.5 32.2 0.00 0.00 0.00 64 1009.7
20260505002125 26 360 16.1 32.2 0.00 0.00 0.00 64 1009.6
20260505002026 26 360 14.5 32.2 0.00 0.00 0.00 64 1009.6
20260505001927 26 360 14.5 32.2 0.00 0.00 0.00 65 1009.6
20260505001827 26 360 12.9 32.2 0.00 0.00 0.00 65 1009.6
20260505001731 26 360 12.9 32.2 0.00 0.00 0.00 65 1009.5
20260505001632 26 360 11.3 33.8 0.00 0.00 0.00 64 1009.6
20260505001532 26 360 11.3 33.8 0.00 0.00 0.00 64 1009.5
20260505001433 26 360 11.3 35.4 0.00 0.00 0.00 64 1009.4
20260505001333 26 360 11.3 35.4 0.00 0.00 0.00 63 1009.4
20260505001234 26 360 11.3 35.4 0.00 0.00 0.00 63 1009.5
20260505001118 26 360 12.9 35.4 0.00 0.00 0.00 63 1009.6
20260505001019 26 360 11.3 35.4 0.00 0.00 0.00 63 1009.5
20260505000918 26 360 12.9 35.4 0.00 0.00 0.00 63 1009.6
20260505000820 26 360 12.9 35.4 0.00 0.00 0.00 63 1009.5
20260505000721 26 360 12.9 35.4 0.00 0.00 0.00 63 1009.6
20260505000621 26 360 12.9 35.4 0.00 0.00 0.00 63 1009.7
20260505000521 26 360 12.9 35.4 0.00 0.00 0.00 63 1009.6
20260505000428 26 360 11.3 35.4 0.00 0.00 0.00 63 1009.6
20260505000327 26 360 12.9 38.6 0.00 0.00 0.00 63 1009.7
20260505000227 26 360 12.9 38.6 0.00 0.00 0.00 63 1009.7
20260505000128 26 360 12.9 38.6 0.00 0.00 0.00 63 1009.8
20260505000047 26 360 9.7 38.6 0.00 0.00 0.00 62 1009.7
20260504235927 26 360 12.9 38.6 0.00 0.00 0.00 62 1009.7
20260504235827 26 360 14.5 38.6 0.00 0.00 0.00 62 1009.8
20260504235752 26 360 17.7 38.6 0.00 0.00 0.00 62 1009.8
20260504235631 26 360 17.7 38.6 0.00 0.00 0.00 62 1009.8
20260504235531 26 360 17.7 38.6 0.00 0.00 0.00 62 1009.8
20260504235431 26 360 19.3 38.6 0.00 0.00 0.00 62 1009.9
20260504235332 26 360 19.3 38.6 0.00 0.00 0.00 62 1009.8
20260504235233 26 360 16.1 38.6 0.00 0.00 0.00 62 1009.9
20260504235154 26 360 12.9 33.8 0.00 0.00 0.00 62 1009.8
20260504235037 26 360 14.5 33.8 0.00 0.00 0.00 62 1009.9
20260504234937 26 360 14.5 33.8 0.00 0.00 0.00 62 1009.9
20260504234816 26 360 16.1 33.8 0.00 0.00 0.00 62 1009.9
20260504234718 26 360 16.1 40.2 0.00 0.00 0.00 62 1009.9
20260504234639 26 360 14.5 40.2 0.00 0.00 0.00 62 1009.9
20260504234519 26 360 12.9 40.2 0.00 0.00 0.00 62 1009.9
20260504234440 26 360 12.9 40.2 0.00 0.00 0.00 62 1009.8
20260504234320 26 360 14.5 40.2 0.00 0.00 0.00 62 1009.9
20260504234239 26 360 12.9 40.2 0.00 0.00 0.00 62 1009.9
20260504234143 26 360 12.9 40.2 0.00 0.00 0.00 62 1009.8
20260504234016 26 360 11.3 40.2 0.00 0.00 0.00 62 1009.9
20260504233916 26 360 11.3 40.2 0.00 0.00 0.00 62 1010.0
20260504233837 26 360 8.0 40.2 0.00 0.00 0.00 62 1010.1
20260504233716 26 360 8.0 25.7 0.00 0.00 0.00 62 1010.0
20260504233617 26 360 6.4 25.7 0.00 0.00 0.00 62 1010.1
20260504233517 26 360 8.0 25.7 0.00 0.00 0.00 62 1010.1
20260504233442 26 360 8.0 25.7 0.00 0.00 0.00 62 1010.1
20260504233321 26 360 8.0 25.7 0.00 0.00 0.00 62 1010.2
20260504233222 26 360 8.0 25.7 0.00 0.00 0.00 62 1010.3
20260504233121 26 360 8.0 25.7 0.00 0.00 0.00 62 1010.2
20260504233022 26 360 9.7 25.7 0.00 0.00 0.00 62 1010.1
20260504232922 26 360 8.0 38.6 0.00 0.00 0.00 62 1010.2
20260504232822 26 360 9.7 38.6 0.00 0.00 0.00 62 1010.3
20260504232728 26 360 11.3 38.6 0.00 0.00 0.00 61 1010.3
20260504232628 26 360 9.7 38.6 0.00 0.00 0.00 61 1010.2
20260504232527 26 360 11.3 38.6 0.00 0.00 0.00 61 1010.2
20260504232449 26 360 14.5 38.6 0.00 0.00 0.00 61 1010.2
20260504232347 26 360 14.5 38.6 0.00 0.00 0.00 61 1010.2
20260504232227 26 360 12.9 38.6 0.00 0.00 0.00 61 1010.2
20260504232127 26 360 14.5 38.6 0.00 0.00 0.00 61 1010.2
20260504232027 26 360 12.9 38.6 0.00 0.00 0.00 61 1010.2
20260504231931 26 360 11.3 35.4 0.00 0.00 0.00 61 1010.2
20260504231831 26 360 9.7 35.4 0.00 0.00 0.00 61 1010.2
20260504231732 26 360 9.7 35.4 0.00 0.00 0.00 61 1010.2
20260504231632 26 360 11.3 35.4 0.00 0.00 0.00 61 1010.2
20260504231533 26 360 9.7 35.4 0.00 0.00 0.00 61 1010.2
20260504231453 26 360 11.3 35.4 0.00 0.00 0.00 61 1010.2
20260504231353 27 360 12.9 35.4 0.00 0.00 0.00 60 1010.2
20260504231235 27 360 11.3 33.8 0.00 0.00 0.00 61 1010.2
20260504231117 27 360 11.3 33.8 0.00 0.00 0.00 61 1010.1
20260504231017 27 360 12.9 33.8 0.00 0.00 0.00 61 1010.1
20260504230917 26 360 11.3 37.0 0.00 0.00 0.00 61 1010.1
20260504230818 26 360 8.0 37.0 0.00 0.00 0.00 61 1010.1
20260504230739 26 360 8.0 37.0 0.00 0.00 0.00 62 1010.2
20260504230618 26 360 9.7 37.0 0.00 0.00 0.00 62 1010.3
20260504230543 26 360 9.7 37.0 0.00 0.00 0.00 62 1010.3
20260504230416 26 360 14.5 37.0 0.00 0.00 0.00 62 1010.3
20260504230336 26 360 17.7 37.0 0.00 0.00 0.00 62 1010.3
20260504230256 26 360 20.9 37.0 0.00 0.00 0.00 62 1010.3
20260504230116 26 360 19.3 37.0 0.00 0.00 0.00 61 1010.3
20260504230016 26 360 19.3 35.4 0.00 0.00 0.00 61 1010.4
20260504225917 26 360 16.1 35.4 0.00 0.00 0.00 61 1010.4
20260504225842 27 360 16.1 35.4 0.00 0.00 0.00 61 1010.4
20260504225720 27 360 12.9 35.4 0.00 0.00 0.00 62 1010.4
20260504225642 27 360 12.9 35.4 0.00 0.00 0.00 61 1010.4
20260504225604 27 360 12.9 35.4 0.00 0.00 0.00 61 1010.5
20260504225443 27 360 14.5 35.4 0.00 0.00 0.00 61 1010.5
20260504225316 27 360 11.3 29.0 0.00 0.00 0.00 61 1010.5
20260504225217 27 360 11.3 27.4 0.00 0.00 0.00 61 1010.4
20260504225117 27 360 9.7 27.4 0.00 0.00 0.00 61 1010.6
20260504225022 27 360 9.7 27.4 0.00 0.00 0.00 61 1010.5
20260504224942 27 360 9.7 32.2 0.00 0.00 0.00 61 1010.5
20260504224821 27 360 9.7 32.2 0.00 0.00 0.00 61 1010.6
20260504224742 27 360 11.3 35.4 0.00 0.00 0.00 61 1010.6
20260504224622 27 360 11.3 35.4 0.00 0.00 0.00 61 1010.6
20260504224522 27 360 12.9 35.4 0.00 0.00 0.00 60 1010.6
20260504224422 27 360 11.3 35.4 0.00 0.00 0.00 60 1010.5
20260504224343 27 360 11.3 35.4 0.00 0.00 0.00 60 1010.5
20260504224226 27 360 11.3 35.4 0.00 0.00 0.00 60 1010.6
20260504224127 27 360 11.3 35.4 0.00 0.00 0.00 60 1010.6
20260504224027 27 360 11.3 35.4 0.00 0.00 0.00 60 1010.6
20260504223946 27 360 11.3 35.4 0.00 0.00 0.00 60 1010.6
20260504223825 27 360 11.3 32.2 0.00 0.00 0.00 60 1010.6
20260504223727 27 360 11.3 32.2 0.00 0.00 0.00 59 1010.6
20260504223627 27 360 11.3 37.0 0.00 0.00 0.00 59 1010.7
20260504223532 27 360 11.3 37.0 0.00 0.00 0.00 60 1010.7
20260504223433 27 360 11.3 37.0 0.00 0.00 0.00 60 1010.7
20260504223333 27 360 11.3 37.0 0.00 0.00 0.00 60 1010.6
20260504223234 27 360 11.3 37.0 0.00 0.00 0.00 60 1010.7
20260504223133 27 360 12.9 37.0 0.00 0.00 0.00 60 1010.6
20260504223035 27 360 11.3 37.0 0.00 0.00 0.00 60 1010.6
20260504222920 27 360 12.9 32.2 0.00 0.00 0.00 60 1010.7
20260504222822 27 360 11.3 32.2 0.00 0.00 0.00 60 1010.7
20260504222722 27 360 12.9 32.2 0.00 0.00 0.00 60 1010.6
20260504222642 27 360 12.9 32.2 0.00 0.00 0.00 60 1010.6
20260504222603 27 360 11.3 40.2 0.00 0.00 0.00 60 1010.7
20260504222416 27 360 11.3 40.2 0.00 0.00 0.00 60 1010.7
20260504222336 27 360 12.9 40.2 0.00 0.00 0.00 60 1010.7
20260504222220 27 360 12.9 40.2 0.00 0.00 0.00 60 1010.8
20260504222121 27 360 14.5 40.2 0.00 0.00 0.00 60 1010.8
20260504222022 27 360 12.9 40.2 0.00 0.00 0.00 59 1010.8
20260504221923 27 360 17.7 40.2 0.00 0.00 0.00 59 1010.8
20260504221824 27 360 17.7 40.2 0.00 0.00 0.00 59 1010.7
20260504221723 27 360 17.7 40.2 0.00 0.00 0.00 59 1010.7
20260504221628 27 360 17.7 40.2 0.00 0.00 0.00 59 1010.7
20260504221529 27 360 14.5 40.2 0.00 0.00 0.00 60 1010.7
20260504221430 27 360 14.5 40.2 0.00 0.00 0.00 59 1010.7
20260504221329 27 360 11.3 30.6 0.00 0.00 0.00 59 1010.7
20260504221230 27 360 11.3 30.6 0.00 0.00 0.00 59 1010.6
20260504221152 27 360 12.9 30.6 0.00 0.00 0.00 59 1010.7
20260504221032 27 360 12.9 30.6 0.00 0.00 0.00 59 1010.7
20260504220917 27 360 12.9 30.6 0.00 0.00 0.00 59 1010.7
20260504220816 27 360 11.3 29.0 0.00 0.00 0.00 61 1010.7
20260504220718 27 360 11.3 29.0 0.00 0.00 0.00 61 1010.7
20260504220618 27 360 12.9 29.0 0.00 0.00 0.00 61 1010.7
20260504220519 27 360 14.5 32.2 0.00 0.00 0.00 61 1010.7
20260504220419 27 360 14.5 32.2 0.00 0.00 0.00 61 1010.8
20260504220341 27 360 16.1 32.2 0.00 0.00 0.00 62 1010.7
20260504220225 27 360 16.1 32.2 0.00 0.00 0.00 61 1010.7
20260504220126 27 360 16.1 32.2 0.00 0.00 0.00 61 1010.7
20260504220027 27 360 16.1 32.2 0.00 0.00 0.00 61 1010.8
20260504215927 27 360 14.5 41.8 0.00 0.00 0.00 61 1010.8
20260504215828 27 360 14.5 41.8 0.00 0.00 0.00 61 1010.9
20260504215729 27 360 16.1 41.8 0.00 0.00 0.00 61 1010.8
20260504215632 27 360 14.5 41.8 0.00 0.00 0.00 60 1011.0
20260504215533 27 360 17.7 41.8 0.00 0.00 0.00 60 1011.0
20260504215433 27 360 16.1 41.8 0.00 0.00 0.00 60 1011.0
20260504215334 27 360 16.1 41.8 0.00 0.00 0.00 60 1011.0
20260504215233 27 360 16.1 41.8 0.00 0.00 0.00 59 1010.9
20260504215134 27 360 14.5 41.8 0.00 0.00 0.00 59 1010.8
20260504215033 27 360 12.9 33.8 0.00 0.00 0.00 60 1010.8
20260504214918 27 360 11.3 38.6 0.00 0.00 0.00 59 1010.8
20260504214818 27 360 11.3 38.6 0.00 0.00 0.00 59 1010.8
20260504214718 27 360 14.5 38.6 0.00 0.00 0.00 59 1010.8
20260504214638 27 360 12.9 41.8 0.00 0.00 0.00 59 1010.8
20260504214518 27 360 12.9 43.5 0.00 0.00 0.00 59 1010.8
20260504214418 27 360 16.1 43.5 0.00 0.00 0.00 61 1010.8
20260504214318 27 360 17.7 43.5 0.00 0.00 0.00 61 1010.8
20260504214223 27 360 16.1 43.5 0.00 0.00 0.00 61 1010.8
20260504214123 27 360 19.3 43.5 0.00 0.00 0.00 60 1010.9
20260504214044 27 360 24.1 43.5 0.00 0.00 0.00 60 1010.9
20260504213923 27 360 24.1 43.5 0.00 0.00 0.00 60 1011.0
20260504213823 27 360 22.5 43.5 0.00 0.00 0.00 60 1010.8
20260504213722 27 360 24.1 43.5 0.00 0.00 0.00 60 1010.9
20260504213622 27 360 22.5 41.8 0.00 0.00 0.00 60 1010.8
20260504213527 27 360 19.3 40.2 0.00 0.00 0.00 61 1010.8
20260504213427 27 360 19.3 40.2 0.00 0.00 0.00 60 1010.8
20260504213348 27 360 16.1 40.2 0.00 0.00 0.00 60 1010.9
20260504213227 27 360 12.9 37.0 0.00 0.00 0.00 61 1010.9
20260504213127 27 360 12.9 37.0 0.00 0.00 0.00 61 1010.8
20260504213027 27 360 11.3 37.0 0.00 0.00 0.00 61 1010.9
20260504212928 27 360 11.3 37.0 0.00 0.00 0.00 60 1011.0
20260504212833 27 360 14.5 37.0 0.00 0.00 0.00 61 1011.0
20260504212734 27 360 14.5 37.0 0.00 0.00 0.00 61 1011.0
20260504212634 27 360 17.7 37.0 0.00 0.00 0.00 61 1011.1
20260504212556 27 360 19.3 37.0 0.00 0.00 0.00 61 1011.1
20260504212436 27 360 19.3 37.0 0.00 0.00 0.00 61 1011.1
20260504212316 26 360 19.3 32.2 0.00 0.00 0.00 61 1011.0
20260504212217 26 360 19.3 32.2 0.00 0.00 0.00 61 1011.1
20260504212121 26 360 17.7 32.2 0.00 0.00 0.00 60 1011.2
20260504212023 27 360 16.1 32.2 0.00 0.00 0.00 61 1011.1
20260504211942 27 360 14.5 32.2 0.00 0.00 0.00 60 1011.1
20260504211816 27 360 14.5 32.2 0.00 0.00 0.00 60 1011.2
20260504211737 27 360 14.5 46.7 0.00 0.00 0.00 60 1011.2
20260504211616 27 360 14.5 46.7 0.00 0.00 0.00 60 1011.1
20260504211516 27 360 12.9 46.7 0.00 0.00 0.00 59 1011.2
20260504211420 27 360 9.7 46.7 0.00 0.00 0.00 60 1011.3
20260504211321 27 360 11.3 46.7 0.00 0.00 0.00 60 1011.3
20260504211220 27 360 12.9 46.7 0.00 0.00 0.00 60 1011.3
20260504211120 27 360 16.1 46.7 0.00 0.00 0.00 60 1011.3
20260504211021 27 360 19.3 46.7 0.00 0.00 0.00 59 1011.3
20260504210921 27 360 17.7 46.7 0.00 0.00 0.00 59 1011.3
20260504210822 27 360 16.1 35.4 0.00 0.00 0.00 60 1011.3
20260504210728 27 360 14.5 33.8 0.00 0.00 0.00 60 1011.3
20260504210629 27 360 12.9 33.8 0.00 0.00 0.00 59 1011.4
20260504210528 27 360 9.7 33.8 0.00 0.00 0.00 59 1011.4
20260504210428 27 360 11.3 33.8 0.00 0.00 0.00 59 1011.5
20260504210329 27 360 11.3 33.8 0.00 0.00 0.00 59 1011.4
20260504210229 27 360 12.9 33.8 0.00 0.00 0.00 59 1011.4
20260504210129 27 360 12.9 33.8 0.00 0.00 0.00 59 1011.6
20260504210035 27 360 14.5 33.8 0.00 0.00 0.00 60 1011.6
20260504205916 27 360 12.9 33.8 0.00 0.00 0.00 60 1011.5
20260504205817 27 360 11.3 30.6 0.00 0.00 0.00 60 1011.6
20260504205717 27 360 8.0 30.6 0.00 0.00 0.00 59 1011.6
20260504205617 27 360 6.4 30.6 0.00 0.00 0.00 61 1011.6
20260504205517 27 360 9.7 30.6 0.00 0.00 0.00 61 1011.6
20260504205421 27 242 11.3 30.6 0.00 0.00 0.00 63 1011.6
20260504205322 27 360 12.9 30.6 0.00 0.00 0.00 60 1011.6
20260504205242 27 360 12.9 38.6 0.00 0.00 0.00 60 1011.7
20260504205122 27 360 11.3 38.6 0.00 0.00 0.00 59 1011.6
20260504205044 27 360 9.7 38.6 0.00 0.00 0.00 58 1011.7
20260504204922 27 360 9.7 38.6 0.00 0.00 0.00 59 1011.7
20260504204823 27 360 9.7 38.6 0.00 0.00 0.00 59 1011.7
20260504204723 27 360 12.9 38.6 0.00 0.00 0.00 60 1011.6
20260504204628 27 360 16.1 38.6 0.00 0.00 0.00 61 1011.6
20260504204528 27 360 19.3 38.6 0.00 0.00 0.00 61 1011.7
20260504204429 27 360 20.9 37.0 0.00 0.00 0.00 60 1011.6
20260504204330 27 360 17.7 37.0 0.00 0.00 0.00 60 1011.6
20260504204230 27 360 14.5 30.6 0.00 0.00 0.00 60 1011.6
20260504204130 27 360 12.9 30.6 0.00 0.00 0.00 60 1011.7
20260504204034 27 360 14.5 30.6 0.00 0.00 0.00 60 1011.7
20260504203955 27 360 17.7 30.6 0.00 0.00 0.00 61 1011.8
20260504203834 27 360 19.3 32.2 0.00 0.00 0.00 61 1011.7
20260504203734 27 360 17.7 32.2 0.00 0.00 0.00 61 1011.7
20260504203635 27 360 17.7 32.2 0.00 0.00 0.00 60 1011.8
20260504203535 27 360 16.1 35.4 0.00 0.00 0.00 61 1011.8
20260504203436 27 360 16.1 35.4 0.00 0.00 0.00 61 1011.8
20260504203339 27 360 16.1 41.8 0.00 0.00 0.00 60 1012.0
20260504203219 27 360 16.1 41.8 0.00 0.00 0.00 60 1012.0
20260504203120 27 360 16.1 41.8 0.00 0.00 0.00 60 1012.0
20260504203021 27 360 17.7 41.8 0.00 0.00 0.00 60 1012.1
20260504202943 27 360 19.3 41.8 0.00 0.00 0.00 60 1012.1
20260504202823 27 360 19.3 41.8 0.00 0.00 0.00 60 1012.0
20260504202742 27 360 19.3 41.8 0.00 0.00 0.00 60 1012.0
20260504202622 27 360 17.7 41.8 0.00 0.00 0.00 60 1012.1
20260504202526 27 360 16.1 41.8 0.00 0.00 0.00 60 1012.1
20260504202446 27 360 12.9 41.8 0.00 0.00 0.00 60 1012.1
20260504202326 27 360 16.1 41.8 0.00 0.00 0.00 60 1012.1
20260504202227 27 360 19.3 41.8 0.00 0.00 0.00 60 1012.1
20260504202127 27 360 19.3 41.8 0.00 0.00 0.00 60 1012.2
20260504202048 27 360 17.7 41.8 0.00 0.00 0.00 60 1012.1
20260504201927 27 360 17.7 41.8 0.00 0.00 0.00 60 1012.3
20260504201831 27 360 12.9 37.0 0.00 0.00 0.00 60 1012.0
20260504201732 27 360 9.7 32.2 0.00 0.00 0.00 61 1012.2
20260504201632 27 360 11.3 32.2 0.00 0.00 0.00 61 1012.2
20260504201553 27 360 12.9 32.2 0.00 0.00 0.00 61 1012.2
20260504201433 27 360 12.9 32.2 0.00 0.00 0.00 61 1012.2
20260504201334 27 360 11.3 32.2 0.00 0.00 0.00 61 1012.2
20260504201254 27 360 12.9 32.2 0.00 0.00 0.00 60 1012.2
20260504201117 27 360 12.9 32.2 0.00 0.00 0.00 61 1012.2
20260504201019 27 360 14.5 32.2 0.00 0.00 0.00 61 1012.3
20260504200918 27 360 14.5 35.4 0.00 0.00 0.00 62 1012.4
20260504200819 26 360 16.1 35.4 0.00 0.00 0.00 61 1012.3
20260504200719 26 360 17.7 35.4 0.00 0.00 0.00 62 1012.4
20260504200619 26 360 16.1 35.4 0.00 0.00 0.00 62 1012.5
20260504200520 26 360 16.1 35.4 0.00 0.00 0.00 61 1012.5
20260504200440 26 360 14.5 35.4 0.00 0.00 0.00 60 1012.4
20260504200324 26 360 14.5 35.4 0.00 0.00 0.00 60 1012.4
20260504200225 27 360 12.9 35.4 0.00 0.00 0.00 60 1012.5
20260504200125 27 360 14.5 35.4 0.00 0.00 0.00 61 1012.5
20260504200025 27 360 11.3 27.4 0.00 0.00 0.00 61 1012.5
20260504195927 27 360 11.3 32.2 0.00 0.00 0.00 61 1012.5
20260504195827 27 360 11.3 32.2 0.00 0.00 0.00 61 1012.4
20260504195732 27 360 11.3 32.2 0.00 0.00 0.00 61 1012.5
20260504195631 26 360 9.7 32.2 0.00 0.00 0.00 61 1012.5
20260504195532 26 360 11.3 32.2 0.00 0.00 0.00 62 1012.6
20260504195432 26 360 12.9 32.2 0.00 0.00 0.00 62 1012.5
20260504195331 26 360 12.9 32.2 0.00 0.00 0.00 62 1012.6
20260504195232 26 360 12.9 32.2 0.00 0.00 0.00 61 1012.6
20260504195132 26 360 12.9 32.2 0.00 0.00 0.00 60 1012.7
20260504195017 26 360 11.3 29.0 0.00 0.00 0.00 61 1012.8
20260504194916 26 360 9.7 40.2 0.00 0.00 0.00 62 1012.7
20260504194816 26 360 9.7 40.2 0.00 0.00 0.00 62 1012.8
20260504194717 26 360 11.3 40.2 0.00 0.00 0.00 62 1012.8
20260504194618 26 360 9.7 40.2 0.00 0.00 0.00 62 1012.9
20260504194538 26 360 11.3 40.2 0.00 0.00 0.00 62 1012.8
20260504194418 26 360 14.5 40.2 0.00 0.00 0.00 61 1012.9
20260504194339 26 360 16.1 40.2 0.00 0.00 0.00 62 1012.8
20260504194223 26 360 19.3 40.2 0.00 0.00 0.00 62 1012.8
20260504194123 26 360 24.1 40.2 0.00 0.00 0.00 63 1012.9
20260504194023 26 360 22.5 40.2 0.00 0.00 0.00 63 1012.8
20260504193924 26 360 19.3 33.8 0.00 0.00 0.00 62 1012.7
20260504193825 26 360 19.3 32.2 0.00 0.00 0.00 62 1012.8
20260504193725 26 360 17.7 30.6 0.00 0.00 0.00 62 1012.8
20260504193630 26 360 14.5 30.6 0.00 0.00 0.00 62 1012.8
20260504193530 26 360 12.9 30.6 0.00 0.00 0.00 62 1012.8
20260504193431 26 360 12.9 29.0 0.00 0.00 0.00 62 1012.8
20260504193329 26 360 11.3 29.0 0.00 0.00 0.00 62 1012.9
20260504193250 26 360 11.3 29.0 0.00 0.00 0.00 62 1012.9
20260504193130 26 360 11.3 29.0 0.00 0.00 0.00 62 1013.0
20260504193030 26 360 11.3 29.0 0.00 0.00 0.00 62 1013.0
20260504192951 26 360 11.3 29.0 0.00 0.00 0.00 62 1013.1
20260504192835 26 360 12.9 27.4 0.00 0.00 0.00 62 1013.1
20260504192737 26 360 12.9 29.0 0.00 0.00 0.00 61 1013.0
20260504192656 26 360 12.9 29.0 0.00 0.00 0.00 61 1013.1
20260504192534 26 360 12.9 29.0 0.00 0.00 0.00 61 1013.1
20260504192433 27 360 11.3 32.2 0.00 0.00 0.00 61 1013.1
20260504192334 26 360 12.9 32.2 0.00 0.00 0.00 61 1013.1
20260504192235 26 360 12.9 32.2 0.00 0.00 0.00 61 1013.2
20260504192119 27 360 12.9 32.2 0.00 0.00 0.00 61 1013.1
20260504192019 27 360 14.5 32.2 0.00 0.00 0.00 61 1013.1
20260504191919 26 360 14.5 32.2 0.00 0.00 0.00 60 1013.2
20260504191819 26 360 12.9 32.2 0.00 0.00 0.00 60 1013.2
20260504191720 26 360 11.3 30.6 0.00 0.00 0.00 59 1013.2
20260504191620 27 360 11.3 30.6 0.00 0.00 0.00 59 1013.2
20260504191521 27 360 8.0 29.0 0.00 0.00 0.00 60 1013.3
20260504191426 27 360 9.7 22.5 0.00 0.00 0.00 61 1013.3
20260504191327 27 360 9.7 22.5 0.00 0.00 0.00 60 1013.3
20260504191247 27 360 9.7 22.5 0.00 0.00 0.00 60 1013.4
20260504191127 27 360 9.7 24.1 0.00 0.00 0.00 60 1013.4
20260504191027 27 360 11.3 24.1 0.00 0.00 0.00 61 1013.3
20260504190928 26 360 8.0 24.1 0.00 0.00 0.00 62 1013.4
20260504190848 26 360 9.7 27.4 0.00 0.00 0.00 62 1013.4
20260504190727 26 360 8.0 27.4 0.00 0.00 0.00 63 1013.4
20260504190632 26 360 9.7 27.4 0.00 0.00 0.00 63 1013.5
20260504190532 26 360 9.7 27.4 0.00 0.00 0.00 63 1013.4
20260504190453 26 360 12.9 27.4 0.00 0.00 0.00 62 1013.5
20260504190332 25 360 12.9 30.6 0.00 0.00 0.00 62 1013.5
20260504190253 25 360 12.9 30.6 0.00 0.00 0.00 62 1013.5
20260504190152 26 360 11.3 30.6 0.00 0.00 0.00 62 1013.5
20260504190031 26 360 11.3 30.6 0.00 0.00 0.00 61 1013.5
20260504185916 26 360 9.7 30.6 0.00 0.00 0.00 62 1013.5
20260504185818 26 360 12.9 30.6 0.00 0.00 0.00 61 1013.5
20260504185718 26 360 12.9 30.6 0.00 0.00 0.00 60 1013.5
20260504185618 26 360 12.9 30.6 0.00 0.00 0.00 60 1013.5
20260504185538 26 360 14.5 30.6 0.00 0.00 0.00 62 1013.5
20260504185418 26 360 12.9 30.6 0.00 0.00 0.00 62 1013.5
20260504185319 26 360 9.7 29.0 0.00 0.00 0.00 62 1013.5
20260504185238 26 360 11.3 27.4 0.00 0.00 0.00 62 1013.5
20260504185122 26 360 9.7 27.4 0.00 0.00 0.00 62 1013.6
20260504185022 26 360 9.7 24.1 0.00 0.00 0.00 62 1013.5
20260504184923 26 360 9.7 24.1 0.00 0.00 0.00 62 1013.5
20260504184823 26 360 9.7 24.1 0.00 0.00 0.00 62 1013.4
20260504184723 26 360 8.0 27.4 0.00 0.00 0.00 62 1013.5
20260504184624 26 360 8.0 27.4 0.00 0.00 0.00 62 1013.5
20260504184528 26 360 8.0 27.4 0.00 0.00 0.00 63 1013.5
20260504184429 26 360 9.7 27.4 0.00 0.00 0.00 63 1013.5
20260504184329 26 360 9.7 33.8 0.00 0.00 0.00 63 1013.5
20260504184229 26 360 11.3 33.8 0.00 0.00 0.00 63 1013.5
20260504184149 25 360 11.3 33.8 0.00 0.00 0.00 63 1013.5
20260504184029 26 360 9.7 33.8 0.00 0.00 0.00 63 1013.7
20260504183930 26 360 9.7 33.8 0.00 0.00 0.00 63 1013.7
20260504183834 26 360 9.7 33.8 0.00 0.00 0.00 63 1013.8
20260504183735 25 360 9.7 33.8 0.00 0.00 0.00 64 1013.7
20260504183616 25 360 12.9 33.8 0.00 0.00 0.00 64 1013.7
20260504183536 25 360 14.5 33.8 0.00 0.00 0.00 65 1013.7
20260504183436 25 360 17.7 33.8 0.00 0.00 0.00 64 1013.9
20260504183316 25 360 16.1 30.6 0.00 0.00 0.00 64 1013.8
20260504183216 25 360 12.9 30.6 0.00 0.00 0.00 63 1013.8
20260504183121 25 360 11.3 30.6 0.00 0.00 0.00 63 1013.8
20260504183021 25 360 11.3 30.6 0.00 0.00 0.00 65 1013.9
20260504182942 25 360 9.7 30.6 0.00 0.00 0.00 64 1013.8
20260504182823 25 360 11.3 33.8 0.00 0.00 0.00 64 1014.0
20260504182721 25 360 12.9 33.8 0.00 0.00 0.00 64 1014.0
20260504182623 25 360 14.5 33.8 0.00 0.00 0.00 64 1014.0
20260504182523 25 360 12.9 33.8 0.00 0.00 0.00 64 1014.0
20260504182428 25 360 16.1 33.8 0.00 0.00 0.00 65 1014.0
20260504182328 25 360 16.1 33.8 0.00 0.00 0.00 65 1014.1
20260504182227 25 360 16.1 38.6 0.00 0.00 0.00 65 1014.0
20260504182127 25 360 16.1 38.6 0.00 0.00 0.00 65 1014.1
20260504182049 25 360 17.7 38.6 0.00 0.00 0.00 64 1014.0
20260504181927 25 360 16.1 38.6 0.00 0.00 0.00 64 1014.0
20260504181827 25 360 14.5 38.6 0.00 0.00 0.00 64 1014.0
20260504181728 25 360 16.1 38.6 0.00 0.00 0.00 65 1014.0
20260504181633 25 360 16.1 38.6 0.00 0.00 0.00 64 1014.2
20260504181533 25 360 14.5 38.6 0.00 0.00 0.00 65 1014.1
20260504181434 25 360 12.9 38.6 0.00 0.00 0.00 64 1014.1
20260504181334 25 360 12.9 37.0 0.00 0.00 0.00 64 1014.2
20260504181234 25 360 11.3 33.8 0.00 0.00 0.00 63 1014.1
20260504181135 25 360 11.3 33.8 0.00 0.00 0.00 63 1014.2
20260504181019 25 360 9.7 33.8 0.00 0.00 0.00 65 1014.2
20260504180940 25 360 9.7 33.8 0.00 0.00 0.00 65 1014.1
20260504180820 25 360 9.7 33.8 0.00 0.00 0.00 63 1014.1
20260504180719 25 360 8.0 33.8 0.00 0.00 0.00 64 1014.1
20260504180620 25 360 8.0 29.0 0.00 0.00 0.00 65 1014.1
20260504180520 25 360 9.7 29.0 0.00 0.00 0.00 65 1014.1
20260504180421 25 360 12.9 29.0 0.00 0.00 0.00 66 1014.2
20260504180325 25 360 14.5 29.0 0.00 0.00 0.00 65 1014.1
20260504180225 25 360 14.5 29.0 0.00 0.00 0.00 65 1014.1
20260504180125 25 360 12.9 29.0 0.00 0.00 0.00 65 1014.1
20260504180026 25 360 11.3 30.6 0.00 0.00 0.00 65 1014.1
20260504175948 25 360 9.7 30.6 0.00 0.00 0.00 67 1014.2
20260504175827 25 360 9.7 30.6 0.00 0.00 0.00 67 1014.1
20260504175729 25 360 8.0 30.6 0.00 0.00 0.00 67 1014.1
20260504175631 25 360 11.3 30.6 0.00 0.00 0.00 66 1014.1
20260504175531 25 360 9.7 30.6 0.00 0.00 0.00 67 1014.1
20260504175432 24 360 9.7 30.6 0.00 0.00 0.00 67 1014.2
20260504175331 24 360 8.0 30.6 0.00 0.00 0.00 67 1014.2
20260504175233 24 360 8.0 30.6 0.00 0.00 0.00 67 1014.2
20260504175134 24 360 6.4 24.1 0.00 0.00 0.00 67 1014.2
20260504175039 24 360 9.7 24.1 0.00 0.00 0.00 67 1014.3
20260504174918 24 360 11.3 24.1 0.00 0.00 0.00 68 1014.3
20260504174838 24 360 11.3 24.1 0.00 0.00 0.00 68 1014.3
20260504174720 24 360 11.3 24.1 0.00 0.00 0.00 68 1014.3
20260504174620 23 360 9.7 24.1 0.00 0.00 0.00 67 1014.3
20260504174521 24 360 8.0 24.1 0.00 0.00 0.00 67 1014.3
20260504174421 24 360 8.0 25.7 0.00 0.00 0.00 67 1014.3
20260504174326 24 360 8.0 25.7 0.00 0.00 0.00 67 1014.3
20260504174226 24 360 6.4 25.7 0.00 0.00 0.00 67 1014.3
20260504174126 24 360 6.4 25.7 0.00 0.00 0.00 66 1014.3
20260504174027 24 360 8.0 25.7 0.00 0.00 0.00 67 1014.4
20260504173926 24 360 8.0 27.4 0.00 0.00 0.00 67 1014.4
20260504173826 23 360 8.0 27.4 0.00 0.00 0.00 67 1014.5
20260504173727 23 360 9.7 27.4 0.00 0.00 0.00 68 1014.7
20260504173651 23 360 9.7 27.4 0.00 0.00 0.00 68 1014.7
20260504173530 23 360 9.7 27.4 0.00 0.00 0.00 67 1014.7
20260504173431 23 360 9.7 27.4 0.00 0.00 0.00 67 1014.8
20260504173332 23 360 9.7 27.4 0.00 0.00 0.00 67 1014.8
20260504173251 23 360 9.7 27.4 0.00 0.00 0.00 67 1014.8
20260504173132 23 360 11.3 27.4 0.00 0.00 0.00 67 1014.9
20260504173053 23 360 11.3 27.4 0.00 0.00 0.00 67 1014.8
20260504172916 24 360 12.9 25.7 0.00 0.00 0.00 67 1014.8
20260504172818 24 360 12.9 25.7 0.00 0.00 0.00 67 1014.8
20260504172717 24 360 14.5 25.7 0.00 0.00 0.00 67 1015.0
20260504172639 24 360 12.9 25.7 0.00 0.00 0.00 67 1015.0
20260504172539 24 360 12.9 25.7 0.00 0.00 0.00 67 1014.9
20260504172418 24 360 11.3 25.7 0.00 0.00 0.00 67 1014.9
20260504172318 23 360 9.7 25.7 0.00 0.00 0.00 67 1015.0
20260504172218 24 360 11.3 25.7 0.00 0.00 0.00 66 1015.0
20260504172138 24 360 11.3 25.7 0.00 0.00 0.00 67 1015.0
20260504172023 24 360 9.7 25.7 0.00 0.00 0.00 66 1014.9
20260504171923 24 360 9.7 25.7 0.00 0.00 0.00 66 1014.9
20260504171822 24 360 9.7 25.7 0.00 0.00 0.00 68 1015.0
20260504171743 24 360 8.0 25.7 0.00 0.00 0.00 68 1015.1
20260504171623 24 360 8.0 25.7 0.00 0.00 0.00 68 1015.0
20260504171523 23 360 9.7 25.7 0.00 0.00 0.00 68 1015.1
20260504171423 23 360 9.7 27.4 0.00 0.00 0.00 68 1015.2
20260504171328 23 360 9.7 27.4 0.00 0.00 0.00 68 1015.2
20260504171228 23 360 9.7 33.8 0.00 0.00 0.00 68 1015.2
20260504171129 23 360 8.0 33.8 0.00 0.00 0.00 69 1015.2
20260504171028 23 360 9.7 33.8 0.00 0.00 0.00 69 1015.2
20260504170928 23 360 9.7 33.8 0.00 0.00 0.00 69 1015.2
20260504170828 23 360 9.7 33.8 0.00 0.00 0.00 69 1015.2
20260504170729 23 360 12.9 33.8 0.00 0.00 0.00 69 1015.2
20260504170632 23 360 12.9 33.8 0.00 0.00 0.00 69 1015.3
20260504170533 23 360 14.5 33.8 0.00 0.00 0.00 69 1015.2
20260504170453 23 360 14.5 33.8 0.00 0.00 0.00 69 1015.2
20260504170333 23 360 14.5 33.8 0.00 0.00 0.00 71 1015.1
20260504170232 22 360 14.5 33.8 0.00 0.00 0.00 71 1015.1
20260504170133 22 360 14.5 33.8 0.00 0.00 0.00 71 1015.1
20260504160419 22 360 11.3 27.4 0.00 0.00 0.00 73 1015.7
20260504160320 22 360 9.7 27.4 0.00 0.00 0.00 73 1015.6
20260504160221 22 360 9.7 27.4 0.00 0.00 0.00 73 1015.6
20260504160121 22 360 11.3 27.4 0.00 0.00 0.00 73 1015.8
20260504151133 20 360 11.3 32.2 0.00 0.00 0.00 75 1015.9
20260504151033 20 360 12.9 32.2 0.00 0.00 0.00 75 1016.0
20260504150934 20 360 12.9 32.2 0.00 0.00 0.00 74 1016.0
20260504150835 20 360 12.9 32.2 0.00 0.00 0.00 74 1016.0
20260504150734 20 360 11.3 32.2 0.00 0.00 0.00 74 1016.0
20260504150619 20 360 14.5 32.2 0.00 0.00 0.00 75 1016.0
20260504150520 20 360 14.5 32.2 0.00 0.00 0.00 75 1016.0
20260504150420 20 360 12.9 30.6 0.00 0.00 0.00 74 1016.0
20260504150340 20 360 12.9 30.6 0.00 0.00 0.00 74 1016.0
20260504150220 20 360 12.9 30.6 0.00 0.00 0.00 74 1016.0
20260504150142 20 360 11.3 30.6 0.00 0.00 0.00 74 1016.0
20260504141321 19 360 14.5 33.8 0.00 0.00 0.00 74 1015.8
20260504141223 19 360 14.5 33.8 0.00 0.00 0.00 74 1015.7
20260504141127 19 360 12.9 33.8 0.00 0.00 0.00 74 1015.7
20260504141028 19 360 14.5 33.8 0.00 0.00 0.00 75 1015.8
20260504140927 19 360 14.5 33.8 0.00 0.00 0.00 75 1015.8
20260504140828 19 360 16.1 33.8 0.00 0.00 0.00 75 1015.8
20260504140727 19 360 16.1 33.8 0.00 0.00 0.00 75 1015.8
20260504140648 19 360 16.1 33.8 0.00 0.00 0.00 75 1015.8
20260504140526 19 360 16.1 33.8 0.00 0.00 0.00 75 1015.9
20260504140427 19 360 16.1 33.8 0.00 0.00 0.00 75 1015.9
20260504140330 19 360 16.1 33.8 0.00 0.00 0.00 75 1016.0
20260504140231 19 360 14.5 33.8 0.00 0.00 0.00 75 1016.0
20260504140130 19 360 12.9 25.7 0.00 0.00 0.00 74 1016.0
20260504130718 17 360 11.3 25.7 0.00 0.00 0.00 79 1015.8
20260504130618 17 360 9.7 25.7 0.00 0.00 0.00 79 1015.7
20260504130519 17 360 9.7 25.7 0.00 0.00 0.00 79 1015.7
20260504130419 17 360 9.7 25.7 0.00 0.00 0.00 79 1015.6
20260504130320 17 360 11.3 25.7 0.00 0.00 0.00 79 1015.7
20260504130221 17 360 12.9 25.7 0.00 0.00 0.00 79 1015.8
20260504130124 17 360 12.9 25.7 0.00 0.00 0.00 79 1015.6
20260504120225 15 360 6.4 12.9 0.00 0.00 0.00 84 1015.1
20260504120146 15 360 6.4 12.9 0.00 0.00 0.00 84 1015.0
20260504110629 15 360 6.4 12.9 0.00 0.00 0.00 83 1015.4
20260504110530 15 360 6.4 12.9 0.00 0.00 0.00 83 1015.5
20260504110430 15 360 6.4 12.9 0.00 0.00 0.00 83 1015.5
20260504110331 15 360 6.4 12.9 0.00 0.00 0.00 83 1015.5
20260504110236 15 360 6.4 12.9 0.00 0.00 0.00 83 1015.5
20260504110117 15 360 6.4 12.9 0.00 0.00 0.00 84 1015.6
20260504100545 15 360 8.0 14.5 0.00 0.00 0.00 81 1015.5
20260504100425 15 360 6.4 14.5 0.00 0.00 0.00 81 1015.5
20260504100327 15 360 6.4 14.5 0.00 0.00 0.00 81 1015.5
20260504100227 15 360 6.4 14.5 0.00 0.00 0.00 81 1015.5
20260504100126 15 360 6.4 14.5 0.00 0.00 0.00 81 1015.6
20260504090126 16 360 6.4 16.1 0.00 0.00 0.00 78 1016.0
20260504081928 16 360 12.9 19.3 0.00 0.00 0.00 77 1016.0
20260504081828 16 360 12.9 19.3 0.00 0.00 0.00 77 1016.0
20260504081729 16 360 12.9 19.3 0.00 0.00 0.00 77 1016.0
20260504081650 16 360 11.3 19.3 0.00 0.00 0.00 77 1016.0
20260504081529 16 360 11.3 19.3 0.00 0.00 0.00 76 1016.1
20260504081434 16 360 11.3 20.9 0.00 0.00 0.00 76 1016.0
20260504081334 17 360 9.7 20.9 0.00 0.00 0.00 76 1016.2
20260504081234 17 360 9.7 20.9 0.00 0.00 0.00 76 1016.1
20260504081135 17 360 9.7 20.9 0.00 0.00 0.00 76 1016.1
20260504081035 17 360 11.3 20.9 0.00 0.00 0.00 76 1016.1
20260504080936 17 360 11.3 20.9 0.00 0.00 0.00 76 1016.2
20260504080819 17 360 11.3 20.9 0.00 0.00 0.00 76 1016.2
20260504080720 17 360 11.3 20.9 0.00 0.00 0.00 76 1016.2
20260504080621 17 360 11.3 19.3 0.00 0.00 0.00 76 1016.3
20260504080520 17 360 11.3 19.3 0.00 0.00 0.00 76 1016.2
20260504080422 17 360 9.7 19.3 0.00 0.00 0.00 76 1016.2
20260504080321 17 360 11.3 19.3 0.00 0.00 0.00 76 1016.3
20260504080222 17 360 9.7 19.3 0.00 0.00 0.00 76 1016.2
20260504080146 17 360 9.7 19.3 0.00 0.00 0.00 76 1016.2
20260504070318 17 360 16.1 29.0 0.00 0.00 0.00 73 1016.9
20260504070219 17 360 14.5 27.4 0.00 0.00 0.00 73 1017.0
20260504070121 17 360 14.5 27.4 0.00 0.00 0.00 73 1017.0